Weather History for KHYR - January, 2014

Change the Weather History Date:

Sunday, January 5, 2014

  Actual Average Record
Temperature  
Mean Temperature -16 °F -  
Max Temperature -6 °F 25 °F 43 °F (2012)
Min Temperature -26 °F 7 °F -26 °F (2014)
Degree Days  
Heating Degree Days 81    
Moisture  
Dew Point -23 °F    
Average Humidity 64    
Maximum Humidity 78    
Minimum Humidity 51    
Precipitation  
Precipitation 0.00 in - - ()
Sea Level Pressure  
Sea Level Pressure 30.32 in    
Wind  
Wind Speed 2 mph (WNW)    
Max Wind Speed 6 mph    
Max Gust Speed -    
Visibility 10 miles    
Events      
Averages and records for this station are not official NWS values.
T = Trace of Precipitation, MM = Missing Value Source: NWS Daily Summary

Daily Weather History Graph

Daily Weather History Graph

Search for Another Location

Airport or City:

Trip Planner

Search our weather history database for the weather conditions in past years. The results will help you decide how hot, cold, wet, or windy it might be!

Date:

Astronomy

Jan. 05, 2014 Rise Set
Actual Time 7:47 AM CST 4:35 PM CST
Civil Twilight 7:13 AM CST 5:09 PM CST
Nautical Twilight 6:35 AM CST 5:47 PM CST
Astronomical Twilight 5:59 AM CST 6:23 PM CST
Moon 10:11 AM CST (1/5) 10:22 PM CST (1/5)
Length of Visible Light 9h 56m
Length of Day
8h 47m
Waxing Crescent, 25% of the Moon is Illuminated
Jan 5
Waxing Crescent
Jan 7
First Quarter
Jan 15
Full
Jan 23
Last Quarter
Jan 30
New

Hourly Weather History & Observations

Time (CST) Temp. Windchill Dew Point Humidity Pressure Visibility Wind Dir Wind Speed Gust Speed Precip Events Conditions
12:53 AM -7.1 °F - -14.1 °F 72% 30.26 in 10.0 mi Calm Calm - N/A   Clear
1:53 AM -9.0 °F -18.2 °F -16.1 °F 71% 30.30 in 10.0 mi WNW 3.5 mph - N/A   Clear
2:53 AM -13.0 °F - -18.9 °F 75% 30.30 in 10.0 mi Calm Calm - N/A   Clear
3:53 AM -13.0 °F - -20.0 °F 71% 30.30 in 10.0 mi Calm Calm - N/A   Clear
4:53 AM -18.9 °F - -24.0 °F 78% 30.33 in 10.0 mi Calm Calm - N/A   Clear
5:53 AM -23.1 °F - -27.9 °F 78% 30.36 in 10.0 mi Calm Calm - N/A   Clear
6:53 AM -24.0 °F - -31.0 °F 70% 30.38 in 10.0 mi Calm Calm - N/A   Clear
7:53 AM -26.0 °F - -32.1 °F 73% 30.40 in 10.0 mi Calm Calm - N/A   Clear
8:53 AM -20.0 °F - -26.0 °F 74% 30.40 in 10.0 mi Calm Calm - N/A   Clear
9:53 AM -13.0 °F -22.7 °F -18.9 °F 75% 30.40 in 10.0 mi West 3.5 mph - N/A   Clear
10:53 AM -9.0 °F -18.2 °F -20.0 °F 59% 30.38 in 10.0 mi Variable 3.5 mph - N/A   Clear
11:53 AM -7.1 °F -19.9 °F -20.9 °F 51% 30.35 in 10.0 mi Variable 5.8 mph - N/A   Clear
12:53 PM -6.0 °F -18.6 °F -20.0 °F 51% 30.32 in 10.0 mi Variable 5.8 mph - N/A   Clear
1:53 PM -6.0 °F -16.9 °F -20.0 °F 51% 30.30 in 10.0 mi Variable 4.6 mph - N/A   Clear
2:53 PM -6.0 °F -16.9 °F -20.0 °F 51% 30.30 in 10.0 mi Variable 4.6 mph - N/A   Clear
3:53 PM -7.1 °F - -20.9 °F 51% 30.31 in 10.0 mi Calm Calm - N/A   Clear
4:53 PM -9.0 °F - -20.9 °F 56% 30.32 in 10.0 mi Calm Calm - N/A   Mostly Cloudy
5:12 PM -9.4 °F -18.6 °F -20.2 °F 59% 30.19 in 10.0 mi NW 3.5 mph - N/A   Scattered Clouds
5:53 PM -11.9 °F - -22.0 °F 61% 30.34 in 10.0 mi Calm Calm - N/A   Clear
6:53 PM -13.0 °F -22.7 °F -23.1 °F 61% 30.34 in 10.0 mi Variable 3.5 mph - N/A   Clear
7:53 PM -15.0 °F - -25.1 °F 61% 30.34 in 10.0 mi Calm Calm - N/A   Clear
8:53 PM -17.0 °F -29.7 °F -27.0 °F 60% 30.32 in 10.0 mi Variable 4.6 mph - N/A   Clear
9:53 PM -17.0 °F -29.7 °F -27.0 °F 60% 30.30 in 9.0 mi WNW 4.6 mph - N/A   Overcast
10:53 PM -18.9 °F -34.0 °F -27.9 °F 63% 30.29 in 8.0 mi Variable 5.8 mph - N/A   Overcast
11:53 PM -20.9 °F -36.4 °F -29.9 °F 63% 30.28 in 10.0 mi Variable 5.8 mph - N/A   Clear